| time (UTC) | temp C | wind direction | speed KPH | gust KPH | rain 1hr cm | rain 24hr cm | rain mn cm | humidity % | barometer mb |
| 20260503054311 | 10 | 0 | 0.0 | 0.0 | 0.00 | 0.00 | 0.00 | 67 | |
| 20260503053811 | 9 | 0 | 0.0 | 0.0 | 0.00 | 0.00 | 0.00 | 67 | |
| 20260503053310 | 10 | 0 | 0.0 | 0.0 | 0.00 | 0.00 | 0.00 | 66 | |
| 20260503052810 | 9 | 0 | 0.0 | 0.0 | 0.00 | 0.00 | 0.00 | 66 | |
| 20260503052310 | 9 | 0 | 0.0 | 0.0 | 0.00 | 0.00 | 0.00 | 65 | |
| 20260503051810 | 9 | 0 | 0.0 | 0.0 | 0.00 | 0.00 | 0.00 | 65 | |
| 20260503050809 | 9 | 0 | 0.0 | 0.0 | 0.00 | 0.00 | 0.00 | 65 | |
| 20260503050309 | 9 | 0 | 0.0 | 0.0 | 0.00 | 0.00 | 0.00 | 64 | |
| 20260503045808 | 10 | 0 | 0.0 | 0.0 | 0.00 | 0.00 | 0.00 | 64 | |
| 20260503045308 | 9 | 0 | 0.0 | 0.0 | 0.00 | 0.00 | 0.00 | 63 | |
| 20260503044808 | 9 | 0 | 0.0 | 0.0 | 0.00 | 0.00 | 0.00 | 63 | |
| 20260503043807 | 9 | 0 | 0.0 | 0.0 | 0.00 | 0.00 | 0.00 | 63 | |
| 20260503043307 | 9 | 0 | 0.0 | 0.0 | 0.00 | 0.00 | 0.00 | 63 | |
| 20260503042807 | 9 | 0 | 0.0 | 0.0 | 0.00 | 0.00 | 0.00 | 63 | |
| 20260503042306 | 9 | 0 | 0.0 | 0.0 | 0.00 | 0.00 | 0.00 | 63 | |
| 20260503041806 | 10 | 0 | 0.0 | 0.0 | 0.00 | 0.00 | 0.00 | 63 | |
| 20260503041306 | 10 | 0 | 0.0 | 0.0 | 0.00 | 0.00 | 0.00 | 63 | |
| 20260503040806 | 10 | 0 | 0.0 | 0.0 | 0.00 | 0.00 | 0.00 | 63 | |
| 20260503040305 | 10 | 0 | 0.0 | 0.0 | 0.00 | 0.00 | 0.00 | 63 | |
| 20260503035305 | 10 | 207 | 0.0 | 3.2 | 0.00 | 0.00 | 0.00 | 63 | |
| 20260503034805 | 10 | 198 | 1.6 | 4.8 | 0.00 | 0.00 | 0.00 | 63 | |
| 20260503033804 | 10 | 0 | 0.0 | 0.0 | 0.00 | 0.00 | 0.00 | 64 | |
| 20260503033304 | 10 | 0 | 0.0 | 0.0 | 0.00 | 0.00 | 0.00 | 65 | |
| 20260503032304 | 10 | 0 | 0.0 | 0.0 | 0.00 | 0.00 | 0.00 | 66 | |
| 20260503031803 | 10 | 0 | 0.0 | 0.0 | 0.00 | 0.00 | 0.00 | 67 | |
| 20260503031302 | 10 | 0 | 0.0 | 0.0 | 0.00 | 0.00 | 0.00 | 66 | |
| 20260503030802 | 10 | 0 | 0.0 | 0.0 | 0.00 | 0.00 | 0.00 | 66 | |
| 20260503030302 | 10 | 273 | 0.0 | 3.2 | 0.00 | 0.00 | 0.00 | 66 | |
| 20260503025802 | 10 | 215 | 1.6 | 3.2 | 0.00 | 0.00 | 0.00 | 67 | |
| 20260503025301 | 11 | 0 | 0.0 | 0.0 | 0.00 | 0.00 | 0.00 | 67 | |
| 20260503024801 | 10 | 0 | 0.0 | 0.0 | 0.00 | 0.00 | 0.00 | 67 | |
| 20260503023800 | 11 | 0 | 0.0 | 0.0 | 0.00 | 0.00 | 0.00 | 67 | |
| 20260503023300 | 11 | 0 | 0.0 | 0.0 | 0.00 | 0.00 | 0.00 | 67 | |
| 20260503022800 | 11 | 0 | 0.0 | 0.0 | 0.00 | 0.00 | 0.00 | 68 | |
| 20260503021759 | 11 | 0 | 0.0 | 0.0 | 0.00 | 0.00 | 0.00 | 66 | |
| 20260503020258 | 11 | 0 | 0.0 | 0.0 | 0.00 | 0.00 | 0.00 | 68 | |
| 20260503015758 | 11 | 0 | 0.0 | 0.0 | 0.00 | 0.00 | 0.00 | 66 | |
| 20260503015258 | 11 | 0 | 0.0 | 0.0 | 0.00 | 0.00 | 0.00 | 66 | |
| 20260503014758 | 11 | 0 | 0.0 | 0.0 | 0.00 | 0.00 | 0.00 | 66 | |
| 20260503014257 | 11 | 0 | 0.0 | 0.0 | 0.00 | 0.00 | 0.00 | 67 | |
| 20260503013757 | 11 | 0 | 0.0 | 0.0 | 0.00 | 0.00 | 0.00 | 67 | |
| 20260503013257 | 11 | 0 | 0.0 | 0.0 | 0.00 | 0.00 | 0.00 | 67 | |
| 20260503012757 | 11 | 0 | 0.0 | 0.0 | 0.00 | 0.00 | 0.00 | 67 | |
| 20260503012256 | 11 | 0 | 0.0 | 0.0 | 0.00 | 0.00 | 0.00 | 66 | |
| 20260503011756 | 11 | 0 | 0.0 | 0.0 | 0.00 | 0.00 | 0.00 | 66 | |
| 20260503011256 | 11 | 0 | 0.0 | 0.0 | 0.00 | 0.00 | 0.00 | 66 | |
| 20260503010755 | 11 | 0 | 0.0 | 0.0 | 0.00 | 0.00 | 0.00 | 66 | |
| 20260503005755 | 11 | 200 | 0.0 | 8.0 | 0.00 | 0.00 | 0.00 | 67 | |
| 20260503005255 | 11 | 207 | 3.2 | 4.8 | 0.00 | 0.00 | 0.00 | 67 | |
| 20260503004754 | 12 | 0 | 0.0 | 0.0 | 0.00 | 0.00 | 0.00 | 67 | |
| 20260503004254 | 11 | 0 | 0.0 | 0.0 | 0.00 | 0.00 | 0.00 | 67 | |
| 20260503003754 | 11 | 0 | 0.0 | 0.0 | 0.00 | 0.00 | 0.00 | 68 | |
| 20260503003253 | 11 | 0 | 0.0 | 0.0 | 0.00 | 0.00 | 0.00 | 68 | |
| 20260503002753 | 12 | 0 | 0.0 | 0.0 | 0.00 | 0.00 | 0.00 | 69 | |
| 20260503002253 | 11 | 0 | 0.0 | 0.0 | 0.00 | 0.00 | 0.00 | 68 | |
| 20260503001753 | 12 | 0 | 0.0 | 0.0 | 0.00 | 0.00 | 0.00 | 69 | |
| 20260503001252 | 12 | 214 | 0.0 | 1.6 | 0.00 | 0.00 | 0.00 | 69 | |
| 20260503000252 | 12 | 259 | 0.0 | 3.2 | 0.00 | 0.00 | 0.00 | 69 | |
| 20260502235751 | 12 | 0 | 0.0 | 0.0 | 0.00 | 0.00 | 0.00 | 69 | |
| 20260502235251 | 12 | 0 | 0.0 | 0.0 | 0.00 | 0.00 | 0.00 | 69 | |
| 20260502234751 | 12 | 0 | 0.0 | 0.0 | 0.00 | 0.00 | 0.00 | 69 | |
| 20260502234251 | 12 | 0 | 0.0 | 0.0 | 0.00 | 0.00 | 0.00 | 69 | |
| 20260502233750 | 12 | 0 | 0.0 | 0.0 | 0.00 | 0.00 | 0.00 | 68 | |
| 20260502233250 | 12 | 0 | 0.0 | 0.0 | 0.00 | 0.00 | 0.00 | 68 | |
| 20260502232750 | 12 | 269 | 0.0 | 3.2 | 0.00 | 0.00 | 0.00 | 68 | |
| 20260502232250 | 12 | 0 | 0.0 | 0.0 | 0.00 | 0.00 | 0.00 | 68 | |
| 20260502231749 | 12 | 0 | 0.0 | 0.0 | 0.00 | 0.00 | 0.00 | 68 | |
| 20260502231249 | 12 | 0 | 0.0 | 0.0 | 0.00 | 0.00 | 0.00 | 68 | |
| 20260502230749 | 12 | 0 | 0.0 | 0.0 | 0.00 | 0.00 | 0.00 | 68 | |
| 20260502230248 | 12 | 0 | 0.0 | 0.0 | 0.00 | 0.00 | 0.00 | 68 | |
| 20260502225748 | 12 | 0 | 0.0 | 0.0 | 0.00 | 0.00 | 0.00 | 67 | |
| 20260502224747 | 13 | 0 | 0.0 | 0.0 | 0.00 | 0.00 | 0.00 | 67 | |
| 20260502224247 | 13 | 0 | 0.0 | 0.0 | 0.00 | 0.00 | 0.00 | 67 | |
| 20260502223747 | 13 | 255 | 0.0 | 3.2 | 0.00 | 0.00 | 0.00 | 66 | |
| 20260502223247 | 13 | 0 | 0.0 | 0.0 | 0.00 | 0.00 | 0.00 | 66 | |
| 20260502222746 | 13 | 0 | 0.0 | 0.0 | 0.00 | 0.00 | 0.00 | 65 | |
| 20260502222246 | 13 | 0 | 0.0 | 0.0 | 0.00 | 0.00 | 0.00 | 65 | |
| 20260502221746 | 13 | 0 | 0.0 | 0.0 | 0.00 | 0.00 | 0.00 | 65 | |
| 20260502221245 | 13 | 0 | 0.0 | 0.0 | 0.00 | 0.00 | 0.00 | 65 | |
| 20260502220745 | 13 | 0 | 0.0 | 0.0 | 0.00 | 0.00 | 0.00 | 65 | |
| 20260502215745 | 13 | 0 | 0.0 | 0.0 | 0.00 | 0.00 | 0.00 | 64 | |
| 20260502215244 | 14 | 0 | 0.0 | 0.0 | 0.00 | 0.00 | 0.00 | 64 | |
| 20260502214244 | 13 | 201 | 0.0 | 1.6 | 0.00 | 0.00 | 0.00 | 63 | |
| 20260502213743 | 14 | 212 | 0.0 | 3.2 | 0.00 | 0.00 | 0.00 | 63 | |
| 20260502212743 | 14 | 0 | 0.0 | 0.0 | 0.00 | 0.00 | 0.00 | 62 | |
| 20260502212243 | 15 | 0 | 0.0 | 0.0 | 0.00 | 0.00 | 0.00 | 62 | |
| 20260502211242 | 15 | 0 | 0.0 | 0.0 | 0.00 | 0.00 | 0.00 | 61 | |
| 20260502210742 | 15 | 0 | 0.0 | 0.0 | 0.00 | 0.00 | 0.00 | 61 | |
| 20260502210242 | 15 | 0 | 0.0 | 0.0 | 0.00 | 0.00 | 0.00 | 61 | |
| 20260502205741 | 15 | 249 | 1.6 | 3.2 | 0.00 | 0.00 | 0.00 | 60 | |
| 20260502205241 | 15 | 263 | 1.6 | 4.8 | 0.00 | 0.00 | 0.00 | 60 | |
| 20260502204741 | 15 | 250 | 0.0 | 3.2 | 0.00 | 0.00 | 0.00 | 60 | |
| 20260502204240 | 15 | 0 | 0.0 | 0.0 | 0.00 | 0.00 | 0.00 | 60 | |
| 20260502203740 | 16 | 0 | 0.0 | 0.0 | 0.00 | 0.00 | 0.00 | 60 | |
| 20260502203240 | 16 | 0 | 0.0 | 0.0 | 0.00 | 0.00 | 0.00 | 59 | |
| 20260502201739 | 16 | 215 | 0.0 | 1.6 | 0.00 | 0.00 | 0.00 | 58 | |
| 20260502201239 | 16 | 246 | 1.6 | 6.4 | 0.00 | 0.00 | 0.00 | 58 | |
| 20260502200738 | 16 | 0 | 0.0 | 0.0 | 0.00 | 0.00 | 0.00 | 57 | |
| 20260502200238 | 17 | 0 | 0.0 | 0.0 | 0.00 | 0.00 | 0.00 | 57 | |
| 20260502195738 | 17 | 0 | 0.0 | 0.0 | 0.00 | 0.00 | 0.00 | 57 | |
| 20260502195238 | 17 | 0 | 0.0 | 0.0 | 0.00 | 0.00 | 0.00 | 57 | |
| 20260502194737 | 17 | 0 | 0.0 | 0.0 | 0.00 | 0.00 | 0.00 | 56 | |
| 20260502194237 | 17 | 0 | 0.0 | 0.0 | 0.00 | 0.00 | 0.00 | 56 | |
| 20260502193737 | 17 | 240 | 3.2 | 6.4 | 0.00 | 0.00 | 0.00 | 56 | |
| 20260502193236 | 17 | 249 | 0.0 | 3.2 | 0.00 | 0.00 | 0.00 | 55 | |
| 20260502192236 | 17 | 0 | 0.0 | 0.0 | 0.00 | 0.00 | 0.00 | 54 | |
| 20260502191736 | 17 | 190 | 0.0 | 0.0 | 0.00 | 0.00 | 0.00 | 54 | |
| 20260502191235 | 17 | 72 | 0.0 | 1.6 | 0.00 | 0.00 | 0.00 | 53 | |
| 20260502190735 | 17 | 0 | 0.0 | 0.0 | 0.00 | 0.00 | 0.00 | 53 | |
| 20260502185734 | 18 | 0 | 0.0 | 0.0 | 0.00 | 0.00 | 0.00 | 53 | |
| 20260502185234 | 18 | 0 | 0.0 | 0.0 | 0.00 | 0.00 | 0.00 | 53 | |
| 20260502184234 | 18 | 0 | 0.0 | 0.0 | 0.00 | 0.00 | 0.00 | 52 | |
| 20260502183233 | 18 | 0 | 0.0 | 0.0 | 0.00 | 0.00 | 0.00 | 51 | |
| 20260502182733 | 18 | 0 | 0.0 | 0.0 | 0.00 | 0.00 | 0.00 | 50 | |
| 20260502182233 | 18 | 0 | 0.0 | 0.0 | 0.00 | 0.00 | 0.00 | 50 | |
| 20260502181732 | 19 | 0 | 0.0 | 0.0 | 0.00 | 0.00 | 0.00 | 49 | |
| 20260502181232 | 19 | 0 | 0.0 | 0.0 | 0.00 | 0.00 | 0.00 | 49 | |
| 20260502180231 | 19 | 76 | 0.0 | 3.2 | 0.00 | 0.00 | 0.00 | 49 | |
| 20260502170228 | 20 | 32 | 3.2 | 8.0 | 0.00 | 0.00 | 0.00 | 46 | |
| 20260502164227 | 21 | 28 | 1.6 | 9.7 | 0.00 | 0.00 | 0.00 | 44 | |
| 20260502163727 | 21 | 18 | 1.6 | 8.0 | 0.00 | 0.00 | 0.00 | 44 | |
| 20260502163226 | 21 | 117 | 3.2 | 11.3 | 0.00 | 0.00 | 0.00 | 43 | |
| 20260502162726 | 22 | 4 | 1.6 | 9.7 | 0.00 | 0.00 | 0.00 | 42 | |
| 20260502161725 | 22 | 107 | 1.6 | 9.7 | 0.00 | 0.00 | 0.00 | 42 | |
| 20260502161225 | 22 | 90 | 0.0 | 8.0 | 0.00 | 0.00 | 0.00 | 41 | |
| 20260502160725 | 23 | 73 | 0.0 | 1.6 | 0.00 | 0.00 | 0.00 | 41 | |
| 20260502160225 | 23 | 214 | 1.6 | 8.0 | 0.00 | 0.00 | 0.00 | 41 | |
| 20260502152222 | 25 | 129 | 4.8 | 16.1 | 0.00 | 0.00 | 0.00 | 34 | |
| 20260502151722 | 25 | 134 | 1.6 | 11.3 | 0.00 | 0.00 | 0.00 | 34 | |
| 20260502151222 | 26 | 51 | 3.2 | 8.0 | 0.00 | 0.00 | 0.00 | 34 | |
| 20260502150721 | 26 | 312 | 1.6 | 6.4 | 0.00 | 0.00 | 0.00 | 34 | |
| 20260502150221 | 26 | 89 | 3.2 | 12.9 | 0.00 | 0.00 | 0.00 | 34 | |
| 20260502130715 | 26 | 66 | 3.2 | 8.0 | 0.00 | 0.00 | 0.00 | 32 | |
| 20260502130214 | 26 | 89 | 1.6 | 9.7 | 0.00 | 0.00 | 0.00 | 32 | |
| 20260502123713 | 25 | 14 | 3.2 | 11.3 | 0.00 | 0.00 | 0.00 | 33 | |
| 20260502123212 | 25 | 86 | 3.2 | 12.9 | 0.00 | 0.00 | 0.00 | 32 | |
| 20260502122712 | 25 | 91 | 1.6 | 11.3 | 0.00 | 0.00 | 0.00 | 34 | |
| 20260502122212 | 25 | 49 | 4.8 | 12.9 | 0.00 | 0.00 | 0.00 | 32 | |
| 20260502120711 | 25 | 325 | 3.2 | 6.4 | 0.00 | 0.00 | 0.00 | 35 | |
| 20260502120211 | 24 | 58 | 4.8 | 11.3 | 0.00 | 0.00 | 0.00 | 34 | |
| 20260502115711 | 25 | 31 | 3.2 | 8.0 | 0.00 | 0.00 | 0.00 | 34 | |
| 20260502115210 | 24 | 86 | 3.2 | 8.0 | 0.00 | 0.00 | 0.00 | 35 | |
| 20260502114710 | 23 | 302 | 3.2 | 9.7 | 0.00 | 0.00 | 0.00 | 36 | |
| 20260502114210 | 23 | 94 | 0.0 | 4.8 | 0.00 | 0.00 | 0.00 | 38 | |
| 20260502113709 | 23 | 321 | 3.2 | 8.0 | 0.00 | 0.00 | 0.00 | 39 | |
| 20260502113209 | 22 | 113 | 3.2 | 9.7 | 0.00 | 0.00 | 0.00 | 40 | |
| 20260502112209 | 21 | 34 | 1.6 | 6.4 | 0.00 | 0.00 | 0.00 | 43 | |
| 20260502111208 | 21 | 4 | 3.2 | 12.9 | 0.00 | 0.00 | 0.00 | 44 | |
| 20260502110708 | 20 | 91 | 3.2 | 11.3 | 0.00 | 0.00 | 0.00 | 43 | |
| 20260502110207 | 20 | 87 | 3.2 | 14.5 | 0.00 | 0.00 | 0.00 | 45 | |
| 20260502105707 | 20 | 28 | 3.2 | 9.7 | 0.00 | 0.00 | 0.00 | 46 | |
| 20260502105207 | 20 | 56 | 3.2 | 8.0 | 0.00 | 0.00 | 0.00 | 47 | |
| 20260502104707 | 20 | 28 | 1.6 | 6.4 | 0.00 | 0.00 | 0.00 | 49 | |
| 20260502104206 | 19 | 72 | 1.6 | 9.7 | 0.00 | 0.00 | 0.00 | 49 | |
| 20260502103706 | 18 | 84 | 3.2 | 9.7 | 0.00 | 0.00 | 0.00 | 50 | |
| 20260502102706 | 18 | 25 | 3.2 | 8.0 | 0.00 | 0.00 | 0.00 | 50 | |
| 20260502101705 | 17 | 77 | 1.6 | 8.0 | 0.00 | 0.00 | 0.00 | 53 | |
| 20260502100203 | 16 | 25 | 1.6 | 6.4 | 0.00 | 0.00 | 0.00 | 55 | |
| 20260502090700 | 13 | 335 | 0.0 | 3.2 | 0.00 | 0.00 | 0.00 | 60 | |
| 20260502090200 | 13 | 100 | 1.6 | 8.0 | 0.00 | 0.00 | 0.00 | 61 | |
| 20260502064652 | 9 | 0 | 0.0 | 0.0 | 0.00 | 0.00 | 0.00 | 76 | |
| 20260502064152 | 9 | 0 | 0.0 | 0.0 | 0.00 | 0.00 | 0.00 | 75 | |
| 20260502063652 | 9 | 0 | 0.0 | 0.0 | 0.00 | 0.00 | 0.00 | 76 | |
| 20260502063152 | 9 | 0 | 0.0 | 0.0 | 0.00 | 0.00 | 0.00 | 76 | |
| 20260502062651 | 9 | 0 | 0.0 | 0.0 | 0.00 | 0.00 | 0.00 | 75 | |
| 20260502062151 | 8 | 0 | 0.0 | 0.0 | 0.00 | 0.00 | 0.00 | 75 | |
| 20260502055650 | 8 | 90 | 0.0 | 3.2 | 0.00 | 0.00 | 0.00 | 75 |